Regional Weather Roundup
Issued by NWS Little Rock, AR

Home | Current Version | Previous Version | Graphics & Text | Print | Product List | Glossary On
Versions: 1 2 3 4 5 6 7 8 9 10 11 12 13 14 15 16 17 18 19 20 21 22 23 24 25 26 27 28 29 30 31 32 33 34 35 36 37 38 39 40 41 42 43 44 45 46 47 48 49 50
000
ASUS44 KLZK 262305
RWRLZK

WEATHER ROUNDUP FOR ARKANSAS
NATIONAL WEATHER SERVICE LITTLE ROCK AR
500 PM CST THU FEB 26 2015

NOTE: "FAIR" INDICATES FEW OR NO CLOUDS BELOW 12,000 FEET WITH NO
SIGNIFICANT WEATHER AND/OR OBSTRUCTIONS TO VISIBILITY.

ARZ001-003-010-029-270000-
NORTHWEST ARKANSAS

CITY           SKY/WX    TMP DP  RH WIND       PRES   REMARKS
FAYETTEVILLE   SUNNY     27   9  46 N14       30.32R WCI  16
FORT SMITH     MOSUNNY   31  11  43 N15       30.36R WCI  20
HARRISON       PTSUNNY   26   9  48 NW14      30.30R WCI  14
BENTONVILLE    SUNNY     27   9  46 N10       30.35R WCI  17
ROGERS         SUNNY     25   9  50 N14       30.34R WCI  13
SILOAM SPGS    SUNNY     27   7  43 N13G18    30.35R WCI  16
HIGHFILL       SUNNY     28   7  41 N13       30.34R WCI  17
SPRINGDALE     MOSUNNY   27   9  46 N14       30.35  WCI  15
$$

ARZ004-005-016-270000-
NORTH CENTRAL ARKANSAS

CITY           SKY/WX    TMP DP  RH WIND       PRES   REMARKS
BATESVILLE     SUNNY     30  16  55 NW8       30.31R WCI  23
FLIPPIN        PTSUNNY   28  10  47 N10       30.32R WCI  19
MTN HOME       PTSUNNY   27  11  51 NW6       30.31R WCI  20
$$

ARZ040-041-270000-
WEST CENTRAL ARKANSAS

CITY           SKY/WX    TMP DP  RH WIND       PRES   REMARKS
MENA           MOSUNNY   36  19  51 N8G16     30.28R
MOUNT IDA      MOSUNNY   37  18  46 N7        30.26R
$$

ARZ009-017-025-026-028-270000-
NORTHEAST ARKANSAS

CITY           SKY/WX    TMP DP  RH WIND       PRES   REMARKS
CORNING        FAIR      30  16  55 N13G21    30.32R WCI  20
JONESBORO      MOCLDY    30  18  60 N12       30.30R WCI  20
NEWPORT        MOSUNNY   32  18  56 N18       30.32R WCI  20
WALNUT RIDGE   MOSUNNY   30  16  55 N14       30.32R WCI  20
BLYTHEVILLE    CLOUDY    30  22  72 N23       30.29R WCI  17
$$

ARZ022-023-033-042-044-270000-
CENTRAL ARKANSAS

CITY           SKY/WX    TMP DP  RH WIND       PRES   REMARKS
LITTLE ROCK    PTSUNNY   37  19  48 N9        30.31R
N LITTLE ROCK  PTSUNNY   36  22  56 N9G18     30.31R
JACKSONVILLE   MOSUNNY   36  19  49 N7        30.30R
SEARCY         MOSUNNY   34  17  50 N14G20    30.32R WCI  25
HOT SPRINGS    MOSUNNY   40  21  46 N13       30.27R
RUSSELLVILLE   MOSUNNY   36  14  40 NW9       30.31R
CLINTON        FAIR      32  14  47 NW7       30.34R WCI  26
$$

ARZ036-270000-
EAST ARKANSAS

CITY           SKY/WX    TMP DP  RH WIND       PRES   REMARKS
WEST MEMPHIS   CLOUDY    31  24  75 N15       30.28R WCI  20
$$

ARZ050-053-066-070-073-270000-
SOUTHWEST ARKANSAS

CITY           SKY/WX    TMP DP  RH WIND       PRES   REMARKS
ARKADELPHIA    FAIR      42  26  53 N7        30.28R
CAMDEN         MIX PCPN  37  28  70 MISG      30.28F
TEXARKANA      SUNNY     41  28  60 NE6       30.25R
EL DORADO      CLOUDY    36  31  82 N7        30.27R
DE QUEEN       CLOUDY    38  19  46 N12G21    30.28R
$$

ARZ056-057-069-270000-
SOUTHEAST ARKANSAS

CITY           SKY/WX    TMP DP  RH WIND       PRES   REMARKS
PINE BLUFF     PTSUNNY   36  25  64 N12       30.30R
STUTTGART      CLOUDY    34  25  69 N16       30.29R WCI  23
MONTICELLO     CLOUDY    36  27  69 NW6       30.27R

$$




USA.gov is the U.S. government's official web portal to all federal, state and local government web resources and services.